EW1015 Weather Reports


Display with metric or nautical units.
time (UTC)temp
F
wind
direction
speed
MPH
gust
MPH
rain 1hr
in
rain 24hr
in
rain mn
in
humidity
%
barometer
mb
20260831231534 69 241 0.0 2.0 0.00 0.62 0.62 100 1017.3
20260831230034 69 264 0.0 2.0 0.00 0.62 0.62 100 1017.4
20260831224520 69 214 0.0 2.0 0.00 0.62 0.62 100 1017.3
20260831223016 69 109 0.0 3.0 0.01 0.62 0.62 100 1017.5
20260831221511 69 113 0.0 3.0 0.01 0.62 0.62 100 1017.6
20260831220009 69 171 1.0 4.0 0.01 0.62 0.62 100 1017.7
20260831214503 69 145 0.0 3.0 0.02 0.62 0.62 100 1017.8
20260831213101 69 172 0.0 2.0 0.06 0.62 0.62 100 1017.8
20260831211554 69 170 0.0 5.0 0.06 0.61 0.61 100 1017.8
20260831210048 69 145 0.0 3.0 0.07 0.61 0.61 100 1017.9
20260831204544 69 163 0.0 2.0 0.07 0.60 0.60 100 1018.1
20260831203041 69 138 0.0 2.0 0.06 0.56 0.56 100 1018.2
20260831201535 69 109 0.0 2.0 0.08 0.55 0.55 100 1018.3
20260831200035 68 119 0.0 2.0 0.15 0.54 0.54 100 1018.6
20260831194541 69 160 0.0 2.0 0.23 0.53 0.53 100 1018.7
20260831193022 68 248 1.0 2.0 0.23 0.50 0.50 100 1018.7
20260831191520 68 128 1.0 4.0 0.21 0.47 0.47 100 1018.6
20260831190015 69 182 0.0 3.0 0.13 0.38 0.38 100 1018.7
20260831184509 69 229 2.0 4.0 0.10 0.30 0.30 100 1018.9
20260831183003 69 257 1.0 5.0 0.07 0.27 0.27 2 1019.1
20260831181603 69 200 1.0 5.0 0.06 0.26 0.26 4 1019.1
20260831180055 69 248 1.0 2.0 0.06 0.25 0.25 7 1019.1
20260831174553 69 222 1.0 4.0 0.01 0.20 0.20 11 1019.2
20260831173056 69 224 1.0 3.0 0.02 0.20 0.20 13 1019.4
20260831171550 69 186 2.0 6.0 0.02 0.20 0.20 15 1019.3
20260831170049 70 169 1.0 3.0 0.01 0.19 0.19 16 1019.6
20260831164554 70 171 0.0 2.0 0.01 0.19 0.19 20 1019.5
20260831163044 69 213 1.0 4.0 0.00 0.18 0.18 23 1019.8
20260831161543 69 277 1.0 4.0 0.00 0.18 0.18 26 1020.2
20260831160043 69 252 1.0 3.0 0.00 0.18 0.18 26 1020.0
20260831154553 69 146 1.0 5.0 0.00 0.18 0.18 32 1019.9
20260831153038 68 178 1.0 4.0 0.02 0.18 0.18 35 1020.1
20260831151536 68 176 0.0 2.0 0.03 0.18 0.18 40 1020.1
20260831150034 67 163 1.0 3.0 0.04 0.18 0.18 45 1020.1
20260831144535 67 124 2.0 4.0 0.10 0.18 0.18 50 1019.7
20260831143048 67 209 0.0 2.0 0.13 0.16 0.16 54 1020.1
20260831141545 67 115 1.0 3.0 0.15 0.15 0.15 58 1019.7
20260831140038 67 151 1.0 2.0 0.14 0.14 0.14 62 1020.0
20260831134531 67 5 1.0 2.0 0.08 0.08 0.08 67 1020.2
20260831133031 67 123 0.0 3.0 0.03 0.03 0.03 71 1019.8
20260831131522 67 260 0.0 1.0 0.00 0.00 0.00 72 1020.0
20260831130023 67 223 0.0 2.0 0.00 0.00 0.00 73 1019.9
20260831124522 68 223 0.0 1.0 0.00 0.00 0.00 74 1019.8
20260831123019 67 167 0.0 3.0 0.00 0.00 0.00 75 1019.8
20260831121513 67 163 2.0 4.0 0.00 0.00 0.00 75 1019.9
20260831120009 66 136 0.0 3.0 0.00 0.00 0.00 75 1020.1
20260831114508 66 182 0.0 3.0 0.00 0.00 0.00 75 1020.3
20260831113007 66 191 1.0 3.0 0.00 0.00 0.00 76 1020.4
20260831111508 66 167 0.0 2.0 0.00 0.00 0.00 76 1020.4
20260831110006 66 164 1.0 3.0 0.00 0.00 0.00 76 1020.2
20260831104504 65 152 0.0 2.0 0.00 0.00 0.00 77 1020.1
20260831103003 65 103 0.0 0.0 0.00 0.00 0.00 77 1020.1
20260831101502 64 103 0.0 1.0 0.00 0.00 0.00 77 1020.1
20260831100109 64 103 0.0 1.0 0.00 0.00 0.00 78 1020.1
20260831094559 64 103 0.0 1.0 0.00 0.00 0.00 78 1020.1
20260831093100 64 103 0.0 0.0 0.00 0.00 0.00 78 1020.1
20260831091559 63 103 0.0 2.0 0.00 0.00 0.00 79 1020.1
20260831090107 63 103 0.0 1.0 0.00 0.00 0.00 78 1020.2
20260831084555 63 103 0.0 1.0 0.00 0.00 0.00 79 1020.3
20260831083055 63 103 0.0 0.0 0.00 0.00 0.00 79 1020.4
20260831081553 62 103 0.0 1.0 0.00 0.00 0.00 79 1020.4
20260831080054 62 103 0.0 2.0 0.00 0.00 0.00 79 1020.4
20260831074550 62 64 0.0 2.0 0.00 0.00 0.00 79 1020.3
20260831073048 62 77 1.0 2.0 0.00 0.00 0.00 79 1020.1
20260831071549 61 19 0.0 1.0 0.00 0.00 0.00 80 1020.4
20260831070046 61 94 0.0 0.0 0.00 0.00 0.00 79 1020.4
20260831064548 61 94 0.0 2.0 0.00 0.00 0.00 79 1020.5
20260831063043 60 101 1.0 3.0 0.00 0.00 0.00 80 1020.3
20260831061556 60 63 0.0 2.0 0.00 0.00 0.00 80 1020.4
20260831060039 59 121 0.0 1.0 0.00 0.00 0.00 81 1020.6
20260831054539 59 245 1.0 2.0 0.00 0.00 0.00 81 1020.7
20260831053040 59 100 1.0 2.0 0.00 0.00 0.00 81 1020.5
20260831051538 59 66 0.0 1.0 0.00 0.00 0.00 80 1020.7
20260831050034 60 5 0.0 0.0 0.00 0.00 0.00 80 1021.0
20260831044534 60 5 0.0 1.0 0.00 0.00 0.00 80 1021.1
20260831043032 60 252 0.0 1.0 0.00 0.00 0.00 81 1021.1
20260831041531 60 106 1.0 2.0 0.00 0.00 0.00 81 1020.9
20260831040028 60 132 0.0 2.0 0.00 0.00 0.00 81 1020.9
20260831034527 60 57 0.0 0.0 0.00 0.00 0.00 81 1021.0
20260831033032 60 166 0.0 1.0 0.00 0.00 0.00 82 1020.9
20260831031533 60 71 0.0 2.0 0.00 0.00 0.00 82 1020.8
20260831030023 61 321 0.0 3.0 0.00 0.00 0.00 81 1020.8
20260831024536 61 317 0.0 2.0 0.00 0.00 0.00 81 1020.8
20260831023019 62 196 0.0 1.0 0.00 0.00 0.00 81 1020.8
20260831021519 62 126 0.0 2.0 0.00 0.00 0.00 81 1020.8
20260831020018 62 59 0.0 2.0 0.00 0.00 0.00 81 1021.0
20260831014532 62 71 0.0 1.0 0.00 0.00 0.00 81 1020.9
20260831013020 62 87 0.0 2.0 0.00 0.00 0.00 82 1020.9
20260831011518 62 103 0.0 2.0 0.00 0.00 0.00 82 1020.9
20260831010014 63 103 0.0 1.0 0.00 0.00 0.00 83 1020.6
20260831004512 64 103 0.0 2.0 0.00 0.00 0.00 84 1020.5
20260831003010 65 77 1.0 2.0 0.00 0.00 0.00 84 1020.1
20260831001508 66 292 0.0 0.0 0.00 0.00 0.00 84 1020.0
20260831000007 66 274 0.0 2.0 0.00 0.00 0.00 84 1019.8
20260830234507 66 270 0.0 2.0 0.00 0.00 0.00 84 1019.8
20260830233006 67 30 0.0 2.0 0.00 0.00 0.00 84 1019.7